www.pogodaiklimat.ru
Время
и дата
12:56 19.07
13:56 19.07
14:56 19.07
15:56 19.07
16:56 19.07
17:56 19.07
18:56 19.07
19:56 19.07
20:56 19.07
21:56 19.07
22:56 19.07
23:56 19.07
00:45 20.07
00:56 20.07
01:56 20.07
02:56 20.07
03:56 20.07
04:56 20.07
05:56 20.07
06:56 20.07
07:56 20.07
08:56 20.07
09:56 20.07
10:56 20.07
11:56 20.07
12:56 20.07
13:56 20.07
14:56 20.07
15:56 20.07
16:56 20.07
17:56 20.07
18:56 20.07
19:56 20.07
20:09 20.07
20:56 20.07
21:56 20.07
22:44 20.07
22:56 20.07
23:56 20.07
00:56 21.07
01:56 21.07
02:45 21.07
02:56 21.07
03:56 21.07
04:42 21.07
04:56 21.07
05:56 21.07
06:56 21.07
Ветер
(напр.,м/с)
Видим. Явления Облачность Т
(С)
Тd
(С)
f
(%)
Тe
(С)
Тes
(С)
Комфортность P
(гПа)
Po
(гПа)
Тmin
(С)
Tmax
(С)
R
(мм)
R24
(мм)
S
(см)
СЗ 7 16 км ясно +25.6 +12.2 43 +27 +33 жарко 1014.6 1014.1
СЗ 7 16 км ясно +24.4 +11.7 45 +26 +31 жарко 1014.2 1013.7
СЗ 10 16 км ясно +23.3 +11.7 48 +26 +27 жарко 1013.5 1013.1
З 12
{15}
16 км ясно +23.9 +10.6 43 +25 +25 комфорт 1012.9 1012.4 +19.4 +27.2
СЗ 11
{14}
16 км ясно +21.7 +11.1 51 +24 +24 комфорт 1012.5 1012.1
СЗ 9
{12}
16 км ясно +20.6 +11.7 57 +22 +22 комфорт 1012.3 1011.7
С 4
{10}
16 км 2/0 4500 m
[Ac]
+18.9 +11.7 63 +20 +20 1012.8 1012.4
СЗ 9 16 км ясно +16.7 +12.2 75 +15 +15 1013.7 1013.4
СЗ 8
{11}
16 км 2/2 120 м +16.1 +12.2 78 +14 +14 1014.3 1013.7
СЗ 7
{10}
16 км 2/2 120 м +15.6 +12.8 83 +14 +14 1014.0 1013.4 +15.6 +23.9
СЗ 6 16 км 2/2 180 м +15.0 +12.8 87 +13 +13 1013.9 1013.4
СЗ 5 16 км ясно +15.0 +12.8 87 +14 +14 1013.8 1013.4
СЗ 6 16 км 5/2 210 m
[Ac]
+15.0 +12.8 87 +13 +13 1013.1
СЗ 6 16 км 5/2 210 m
[Ac]
+14.4 +12.8 90 +12 +12 1013.4 1013.1
З 5 16 км 5/2 210 m
[Ac]
+14.4 +12.2 87 +13 +13 1013.3 1012.7
СЗ 4 16 км 5/2 150 m
[Ac]
+14.4 +12.2 87 +13 +13 1012.9 1012.4
СЗ 4 16 км 5/2 150 m
[Ac]
+14.4 +12.2 87 +13 +13 1013.0 1012.7 +14.4 +15.6
СЗ 4 16 км 5/2 120 m
[Ac]
+14.4 +12.2 87 +13 +13 1013.2 1012.7
СЗ 4 16 км 5/2 180 m
[Ac]
+14.4 +12.2 87 +13 +13 1013.5 1013.1
СЗ 2 16 км 5/2 180 m
[Ac]
+16.7 +12.8 78 +17 +17 1014.1 1013.7
СЗ 5 16 км 2/2 180 m
[Ac]
+17.8 +13.3 75 +17 +19 1014.4 1014.1
СЗ 6 16 км 2/2 180 m
[Ac]
+18.9 +12.8 68 +19 +22 1014.3 1014.1
СЗ 7 16 км 2/2 240 m
[Ac]
+20.0 +12.2 61 +21 +24 комфорт 1014.2 1013.7 +14.4 +20.0
СЗ 9 16 км 2/2 240 м +20.0 +12.2 61 +21 +22 комфорт 1014.2 1013.7
СЗ 9 16 км 2/2 240 м +19.4 +12.2 63 +20 +21 1014.4 1014.1
СЗ 9
{13}
16 км 2/2 240 м +19.4 +12.8 66 +20 +22 1014.2 1013.7
З 10
{14}
16 км 2/2 390 m
[Ac]
+20.0 +12.2 61 +21 +22 комфорт 1014.3 1013.7
З 10
{13}
16 км 2/2 270 m
[Ac]
+18.9 +12.2 65 +19 +19 1013.9 1013.4
З 11
{14}
16 км 2/2 240 m
[Ac]
+18.3 +12.8 70 +17 +18 1013.5 1013.1 +18.3 +20.0
З 11
{16}
16 км 2/2 270 m
[Ac]
+18.3 +12.2 68 +17 +17 1013.1 1012.7
З 10
{14}
16 км 2/2 300 м +17.2 +12.2 72 +16 +16 1013.2 1012.7
З 8
{11}
16 км 2/2 270 м +15.6 +12.2 80 +14 +14 1013.8 1013.4
З 9
{13}
16 км 5/5 150 м +14.4 +12.2 87 +12 +12 1014.4 1014.1
З 10
{14}
16 км 8/8 150 м +14.4 +12.2 87 +12 +12 1014.1
З 10
{13}
16 км 8/8 90 м +13.9 +12.2 89 +11 +11 1014.9 1014.4
З 9 16 км 8/8 90 м +13.9 +11.7 87 +11 +11 1014.7 1014.4 +13.9 +18.9
З 10
{13}
16 км 8/8 90 м +13.9 +11.7 87 +11 +11 1014.4
З 10
{13}
16 км 8/8 90 м +13.3 +11.7 90 +10 +10 1014.8 1014.4
З 9 16 км 10/10 90 м +13.3 +11.7 90 +10 +10 1014.9 1014.4
З 6 16 км 8/8 90 м +13.3 +11.7 90 +11 +11 1014.6 1014.1
З 6 16 км 8/8 120 м +13.3 +11.7 90 +11 +11 1014.5 1014.1
З 5 16 км 8/8 120 м +13.3 +11.7 90 +11 +11 1014.1
З 7 16 км 8/8 120 м +13.3 +11.7 90 +11 +11 1014.3 1013.7
З 6 16 км 8/8 150 м +13.3 +11.7 90 +11 +11 1014.4 1014.1 +13.3 +13.9
З 6
{9}
16 км 8/8 90 м +13.3 +11.7 90 +11 +11 1014.1
З 4
{9}
16 км 8/8 90 м +13.3 +11.7 90 +12 +12 1014.7 1014.4
З 6 16 км 8/8 180 м +13.3 +11.7 90 +11 +11 1014.9 1014.4
З 5 16 км 8/8 180 м +13.3 +11.7 90 +11 +11 1015.4 1015.1
Местоположение метеостанции San Francisco International Airport: широта 37.6197 долгота -122.3647 высота над уровнем моря 3 м.
В архиве по умолчанию представлена погода в Сан-Франциско за последние 1-2 суток. Обновление информации о фактической погоде в базе происходит ежечасно! Архивные данные за месяц целиком и за предыдущие месяцы Вы можете получить, выбрав интересующий диапазон дат из раскрывающегося списка и нажав кнопку "Ввод!".
Внимание! Архив погоды МЕТАР в базе сайта по станциям, не включенным в климатический монитор, хранится не более 60 дней. Нет смысла пытаться выбрать более раннюю дату.
*Определитесь, кто Вы:
Внимание! Время в таблицах - местное (без учета летнего времени). Для получения всемирного времени необходимо вычесть поправку, которая равна -8 ч.
Смотрите также архив погоды в соседних городах и на ближайших метеорологических станциях:
Партнеры нашего сайта:      
Пояснения к столбцам:
  • Ветер - указаны скорость ветра в м/с - средняя за 10 мин, порывы в срок и между сроками (в фигурных скобках) и направление, откуда дует ветер: С - северный,
  • СВ - северо-восточный, В - восточный, ЮВ - юго-восточный, Ю - южный, ЮЗ - юго-западный, З - западный, СЗ - северо-западный.
  • Видимость - горизонтальная дальность видимости в метрах или километрах. При видимости от 1 до 10 км при отсутствии осадков обычно наблюдается дымка, при ухудшении видимости до 1 км и менее - туман. В сухую погоду видимость может ухудшаться дымом, пылью или мглою.
  • Явления - указаны атмосферные явления, наблюдавшиеся в срок или в последний час перед сроком; фигурными скобками обозначены явления, наблюдавшиеся между сроками (за 1-3 часа до срока); квадратными скобками обозначены град или гололедные отложения с указанием их диаметра в мм.
  • Облачность - указаны через наклонную черту общая и нижняя облачность в баллах и высота нижней границы облаков в метрах; квадратными скобками обозначены формы облаков: Ci - перистые, Cs - перисто-слоистые, Cc - перисто-кучевые, Ac - высококучевые, As - высокослоистые, Sc - слоисто-кучевые, Ns - слоисто-дождевые, Cu - кучевые, Cb - кучево-дождевые. Подробнее классификацию облаков см. в Атласе облаков (PDF).
  • T - Температура воздуха - температура, измеренная на высоте 2 м над землей.
  • Td - Температура точки росы - температура, при понижении до которой содержащийся в воздухе водяной пар достигнет насыщения.
  • f - Относительная влажность воздуха - влажноcть воздуха, измеренная на высоте 2 м над землей.
  • Te - Эффективная температура - температура, которую ощущает одетый по сезону человек в тени. Характеристика душности погоды. При расчете учитывается влияние влажности воздуха и скорости ветра на теплоощущения человека.
  • Tes - Эффективная температура на солнце - температура, которую ощущает человек, с поправкой на солнечный нагрев. Характеристика знойности погоды. Зависит от высоты солнца над горизонтом, облачности и скорости ветра. Ночью, в пасмурную погоду, а также при ветре 12 м/с и более поправка равна нулю.
  • P - Атмосферное давление - приведенное к уровню моря атмосферное давление.
  • Po - Атмосферное давление - измеренное на уровне метеостанции атмосферное давление.
  • Tmin - Минимальная температура - минимум температуры воздуха на высоте 2 м над землей.
  • Tmax - Максимальная температура - максимум температуры воздуха на высоте 2 м над землей.
  • R - Количество осадков - Количество выпавших осадков за период времени, мм. При наведении курсора мыши на число - период времени, за который выпало указанное количество осадков.
  • R24 - Количество осадков - Количество выпавших осадков за 24 часа, мм.
  • S - Снежный покров - Высота снежного покрова, см. При наведении курсора мыши на число - состояние снежного покрова и степень покрытия местности в баллах.